When you browse on this site, cookies collect data to enhance your experience and personalize the content and advertising you see.
Visit our Privacy Policy to learn more. By continuing to use the site, you agree to this use of cookies and data.
  • In Hungary
  • List of Countries
  • For 7 days
  • Water Temperature
  • Satellite Maps
  • Weather Map
  • News
  • Weather Widgets
  • user-avatar
    Login

    Hourly Weather Sumy

    Today, 18 January, Friday

    Time Temperature Precipitation Wind Pressure Humidity
    00:00 -7°C° 0 mm 7 mps 745 mmHg 90%
    01:00 -6°C° 0 mm 7 mps 745 mmHg 92%
    02:00 -5°C° 0 mm 5 mps 745 mmHg 92%
    03:00 -5°C° 0 mm 5 mps 745 mmHg 93%
    04:00 -4°C° 0 mm 5 mps 745 mmHg 93%
    05:00 -4°C° 0 mm 5 mps 745 mmHg 93%
    06:00 -4°C° 0 mm 5 mps 745 mmHg 93%
    07:00 -2°C° 0 mm 5 mps 745 mmHg 93%
    08:00 -2°C° 0 mm 4 mps 745 mmHg 93%
    09:00 -2°C° 0 mm 5 mps 745 mmHg 95%
    10:00 -2°C° 0 mm 5 mps 745 mmHg 96%
    11:00 -1°C° 0 mm 5 mps 745 mmHg 97%
    12:00 -1°C° 0 mm 5 mps 745 mmHg 98%
    13:00 -1°C° 0 mm 5 mps 745 mmHg 98%
    14:00 -1°C° 0 mm 5 mps 745 mmHg 98%
    15:00 -1°C° 0 mm 5 mps 745 mmHg 97%
    16:00 -1°C° 0 mm 5 mps 745 mmHg 96%
    17:00 -2°C° 0 mm 5 mps 745 mmHg 95%
    18:00 -2°C° 0 mm 5 mps 745 mmHg 95%
    19:00 -2°C° 0 mm 5 mps 745 mmHg 95%
    20:00 -2°C° 0 mm 5 mps 745 mmHg 95%
    21:00 -4°C° 0.1 mm 5 mps 745 mmHg 95%
    22:00 -3°C° 0.1 mm 4 mps 745 mmHg 95%
    23:00 -3°C° 0.1 mm 4 mps 745 mmHg 96%

    Tomorrow, 19 January, Saturday

    Time Temperature Precipitation Wind Pressure Humidity
    00:00 -2°C° 0.4 mm 3 mps 746 mmHg 96%
    01:00 -1°C° 0.4 mm 3 mps 746 mmHg 96%
    02:00 -1°C° 0.4 mm 3 mps 746 mmHg 96%
    03:00 -1°C° 0.3 mm 3 mps 746 mmHg 95%
    04:00 -3°C° 0.3 mm 4 mps 747 mmHg 94%
    05:00 -3°C° 0.3 mm 4 mps 747 mmHg 94%
    06:00 -4°C° 0.1 mm 4 mps 748 mmHg 93%
    07:00 -7°C° 0.1 mm 4 mps 748 mmHg 92%
    08:00 -8°C° 0.1 mm 4 mps 749 mmHg 91%
    09:00 -8°C° 0 mm 4 mps 749 mmHg 90%
    10:00 -9°C° 0 mm 4 mps 750 mmHg 89%
    11:00 -8°C° 0 mm 3 mps 751 mmHg 88%
    12:00 -8°C° 0 mm 3 mps 751 mmHg 89%
    13:00 -8°C° 0 mm 3 mps 751 mmHg 90%
    14:00 -8°C° 0 mm 3 mps 751 mmHg 92%
    15:00 -8°C° 0 mm 3 mps 752 mmHg 93%
    16:00 -9°C° 0 mm 3 mps 752 mmHg 95%
    17:00 -10°C° 0 mm 3 mps 752 mmHg 96%
    18:00 -9°C° 0 mm 3 mps 753 mmHg 96%
    19:00 -8°C° 0 mm 3 mps 753 mmHg 95%
    20:00 -8°C° 0 mm 3 mps 754 mmHg 95%
    21:00 -8°C° 0 mm 3 mps 754 mmHg 95%
    22:00 -9°C° 0 mm 3 mps 754 mmHg 95%
    23:00 -10°C° 0 mm 3 mps 754 mmHg 95%

    Day after tomorrow, 20 January, Sunday

    Time Temperature Precipitation Wind Pressure Humidity
    00:00 -10°C° 0 mm 3 mps 755 mmHg 95%
    01:00 -10°C° 0 mm 2 mps 755 mmHg 95%
    02:00 -10°C° 0 mm 2 mps 755 mmHg 96%
    03:00 -12°C° 0 mm 2 mps 755 mmHg 96%
    04:00 -13°C° 0 mm 2 mps 755 mmHg 96%
    05:00 -13°C° 0 mm 2 mps 755 mmHg 96%
    06:00 -13°C° 0 mm 2 mps 755 mmHg 97%
    07:00 -13°C° 0 mm 2 mps 755 mmHg 97%
    08:00 -13°C° 0 mm 2 mps 755 mmHg 98%
    09:00 -13°C° 0 mm 3 mps 755 mmHg 97%
    10:00 -12°C° 0 mm 3 mps 755 mmHg 96%
    11:00 -10°C° 0 mm 3 mps 755 mmHg 95%
    12:00 -10°C° 0 mm 3 mps 755 mmHg 94%
    13:00 -9°C° 0 mm 3 mps 754 mmHg 94%
    14:00 -9°C° 0 mm 3 mps 754 mmHg 93%
    15:00 -10°C° 0 mm 3 mps 754 mmHg 94%
    16:00 -12°C° 0 mm 3 mps 754 mmHg 94%
    17:00 -14°C° 0 mm 3 mps 753 mmHg 95%
    18:00 -14°C° 0 mm 3 mps 753 mmHg 95%
    19:00 -14°C° 0 mm 3 mps 753 mmHg 94%
    20:00 -14°C° 0 mm 3 mps 753 mmHg 94%
    21:00 -13°C° 0 mm 3 mps 753 mmHg 93%
    22:00 -12°C° 0 mm 3 mps 752 mmHg 93%
    23:00 -12°C° 0 mm 3 mps 752 mmHg 93%

    21 January, Monday

    Time Temperature Precipitation Wind Pressure Humidity
    00:00 -10°C° 0.2 mm 3 mps 752 mmHg 93%
    01:00 -10°C° 0.2 mm 3 mps 751 mmHg 94%
    02:00 -9°C° 0.2 mm 3 mps 751 mmHg 95%
    03:00 -9°C° 0.5 mm 3 mps 750 mmHg 96%
    04:00 -9°C° 0.5 mm 3 mps 750 mmHg 96%
    05:00 -7°C° 0.5 mm 2 mps 749 mmHg 97%
    06:00 -7°C° 0.6 mm 2 mps 749 mmHg 97%
    07:00 -7°C° 0.6 mm 2 mps 748 mmHg 97%
    08:00 -7°C° 0.6 mm 2 mps 748 mmHg 97%
    09:00 -7°C° 0.3 mm 2 mps 748 mmHg 96%
    10:00 -7°C° 0.3 mm 3 mps 748 mmHg 95%
    11:00 -7°C° 0.3 mm 3 mps 748 mmHg 94%
    12:00 -8°C° 0 mm 4 mps 748 mmHg 92%
    13:00 -8°C° 0 mm 5 mps 748 mmHg 90%
    14:00 -9°C° 0 mm 6 mps 748 mmHg 89%
    15:00 -11°C° 0 mm 5 mps 749 mmHg 90%
    16:00 -11°C° 0 mm 4 mps 749 mmHg 91%
    17:00 -12°C° 0 mm 4 mps 750 mmHg 92%
    18:00 -14°C° 0 mm 4 mps 750 mmHg 93%
    19:00 -14°C° 0 mm 4 mps 751 mmHg 93%
    20:00 -15°C° 0 mm 4 mps 751 mmHg 94%
    21:00 -16°C° 0 mm 4 mps 752 mmHg 95%
    22:00 -17°C° 0 mm 4 mps 752 mmHg 95%
    23:00 -17°C° 0 mm 3 mps 753 mmHg 96%

    22 January, Tuesday

    Time Temperature Precipitation Wind Pressure Humidity
    00:00 -18°C° 0 mm 3 mps 753 mmHg 97%
    01:00 -19°C° 0 mm 3 mps 754 mmHg 97%
    02:00 -19°C° 0 mm 2 mps 754 mmHg 98%
    03:00 -19°C° 0 mm 2 mps 754 mmHg 98%
    04:00 -19°C° 0 mm 2 mps 754 mmHg 98%
    05:00 -20°C° 0 mm 2 mps 754 mmHg 99%
    06:00 -20°C° 0 mm 2 mps 755 mmHg 98%
    07:00 -19°C° 0 mm 2 mps 755 mmHg 97%
    08:00 -19°C° 0 mm 2 mps 755 mmHg 97%
    09:00 -18°C° 0 mm 2 mps 755 mmHg 95%
    10:00 -16°C° 0 mm 2 mps 755 mmHg 94%
    11:00 -14°C° 0 mm 2 mps 755 mmHg 92%
    12:00 -13°C° 0 mm 2 mps 755 mmHg 93%
    13:00 -14°C° 0 mm 3 mps 755 mmHg 94%
    14:00 -13°C° 0 mm 3 mps 755 mmHg 95%
    15:00 -14°C° 0 mm 3 mps 755 mmHg 96%
    16:00 -15°C° 0 mm 3 mps 754 mmHg 96%
    17:00 -14°C° 0 mm 2 mps 754 mmHg 97%
    18:00 -14°C° 0 mm 2 mps 754 mmHg 98%
    19:00 -15°C° 0 mm 2 mps 754 mmHg 98%
    20:00 -15°C° 0 mm 2 mps 754 mmHg 98%
    21:00 -15°C° 0 mm 2 mps 754 mmHg 98%
    22:00 -15°C° 0 mm 3 mps 754 mmHg 98%
    23:00 -15°C° 0 mm 3 mps 754 mmHg 98%

    23 January, Wednesday

    Time Temperature Precipitation Wind Pressure Humidity
    00:00 -16°C° 0 mm 3 mps 754 mmHg 98%
    01:00 -16°C° 0 mm 3 mps 754 mmHg 98%
    02:00 -16°C° 0 mm 2 mps 754 mmHg 98%
    03:00 -17°C° 0 mm 2 mps 754 mmHg 96%
    04:00 -18°C° 0 mm 2 mps 754 mmHg 95%
    05:00 -19°C° 0 mm 2 mps 753 mmHg 94%
    06:00 -21°C° 0 mm 3 mps 753 mmHg 92%
    07:00 -22°C° 0 mm 3 mps 753 mmHg 89%
    08:00 -22°C° 0 mm 3 mps 753 mmHg 87%
    09:00 -19°C° 0 mm 3 mps 754 mmHg 85%
    10:00 -17°C° 0 mm 3 mps 754 mmHg 83%
    11:00 -16°C° 0 mm 4 mps 754 mmHg 81%
    12:00 -16°C° 0 mm 4 mps 753 mmHg 81%
    13:00 -15°C° 0 mm 4 mps 753 mmHg 82%
    14:00 -15°C° 0 mm 4 mps 753 mmHg 83%
    15:00 -16°C° 0 mm 4 mps 752 mmHg 83%
    16:00 -17°C° 0 mm 4 mps 752 mmHg 83%
    17:00 -18°C° 0 mm 4 mps 752 mmHg 83%
    18:00 -18°C° 0 mm 4 mps 752 mmHg 82%
    19:00 -19°C° 0 mm 5 mps 752 mmHg 81%
    20:00 -19°C° 0 mm 5 mps 752 mmHg 81%
    21:00 -19°C° 0 mm 5 mps 752 mmHg 81%
    22:00 -19°C° 0 mm 5 mps 752 mmHg 82%
    23:00 -19°C° 0 mm 5 mps 752 mmHg 82%
    Show more